Stations météo

Publicité
Nancy/Ochey, France (7181): Température de l'air & dewpoint: 18.01.2019 12:00:00 - 24.01.2019 12:00:00 (CET)Nancy/Ochey, France (7181): Température de l'air 5cm: 18.01.2019 12:00:00 - 24.01.2019 12:00:00 (CET)Nancy/Ochey, France (7181): Température de l'air -20cm: 18.01.2019 12:00:00 - 24.01.2019 12:00:00 (CET)Nancy/Ochey, France (7181): Vitesse du vent & gusts: 18.01.2019 12:00:00 - 24.01.2019 12:00:00 (CET)Nancy/Ochey, France (7181): Direction du vent: 18.01.2019 12:00:00 - 24.01.2019 12:00:00 (CET)Nancy/Ochey, France (7181): reduced air pressure: 18.01.2019 12:00:00 - 24.01.2019 12:00:00 (CET)Nancy/Ochey, France (7181): visibility: 18.01.2019 12:00:00 - 24.01.2019 12:00:00 (CET)Nancy/Ochey, France (7181): Quantités de précipitations: 18.01.2019 12:00:00 - 24.01.2019 12:00:00 (CET)
Date & Time tt [°C] td [°C] tt 5cm [°C] tt -20cm [°C] ff [km/h] ff [knt] fx [km/h] fx [knt] dd ppp [hPa] vv [km] rr [mm]
24.01.2019 12:00:00 -3,0 -6,3 -2,1 2,7 10 5 17 9 N 1012,1 8 0,0
24.01.2019 11:00:00 -3,3 -5,3 -3,0 2,7 9 5 15 8 NNW 1012,0 4,5 0,0
24.01.2019 10:00:00 -3,6 -5,2 -3,8 2,7 6 3 9 5 NW 1011,1 5 0,0
24.01.2019 09:00:00 -3,6 -5,5 -4,0 2,7 2 1 10 5 NE 1010,6 7 0,0
24.01.2019 08:00:00 -3,6 -5,3 -4,0 2,7 7 4 15 8 NNE 1009,9 6 0,0
24.01.2019 07:00:00 -3,5 -5,2 -3,8 2,7 6 3 9 5 NE 1009,2 6 0,0
24.01.2019 06:00:00 -3,2 -5,2 -3,6 2,7 6 3 15 8 NNE 1008,5 7 0,0
24.01.2019 05:00:00 -3,0 -4,7 -3,3 2,7 6 3 12 6 N 1007,9 5 0,0
24.01.2019 04:00:00 -2,8 -4,4 -3,1 2,7 6 3 13 7 NNE 1007,5 4,6 0,0
24.01.2019 03:00:00 -2,7 -4,3 -3,0 2,7 7 4 13 7 N 1006,9 4,5 0,0
24.01.2019 02:00:00 -2,6 -4,0 -3,0 2,7 8 4 12 6 N 1006,3 3,9 0,0
24.01.2019 01:00:00 -2,5 -3,9 -2,9 2,7 8 4 11 6 NNW 1005,6 3,9 0,0
24.01.2019 00:00:00 -2,3 -3,6 -2,7 2,7 8 5 15 8 N 1004,7 3,6 0,0
23.01.2019 23:00:00 -2,2 -3,5 -2,6 2,7 9 5 16 8 N 1004,0 3,7 0,0
23.01.2019 22:00:00 -2,0 -3,3 -2,5 2,7 7 4 18 10 NNW 1003,4 3,2 0,0
23.01.2019 21:00:00 -1,5 -3,2 -1,9 2,6 13 7 20 11 NNE 1002,4 4,9 0,0
23.01.2019 20:00:00 -1,2 -2,8 -1,6 2,7 9 5 19 11 NNE 1001,7 4,9 0,0
23.01.2019 19:00:00 -1,0 -2,4 -1,4 2,7 14 7 22 12 NE 1000,7 5 0,0
23.01.2019 18:00:00 -0,7 -1,8 -1,0 2,6 13 7 22 12 NE 999,6 4,8 0,0
23.01.2019 17:00:00 -0,6 -1,7 -0,8 2,7 9 5 16 8 NE 998,6 5 0,0
23.01.2019 16:00:00 -0,3 -1,4 -0,2 2,7 11 6 16 9 ENE 997,7 4,6 0,0
23.01.2019 15:00:00 0,0 -1,0 0,1 2,6 8 4 15 8 ENE 997,0 4,2 0,0
23.01.2019 14:00:00 0,2 -0,8 0,2 2,7 6 3 14 7 E 996,5 5 0,0
23.01.2019 13:00:00 0,6 -0,4 0,1 2,7 8 4 15 8 E 996,3 2,1 0,4
23.01.2019 12:00:00 -0,1 -0,7 0,1 2,7 9 5 18 10 ESE 996,2 1,5 0,4
23.01.2019 11:00:00 -0,5 -1,1 -0,3 2,7 10 5 21 12 SE 996,2 1,1 0,6
23.01.2019 10:00:00 -0,9 -1,5 -1,0 2,7 13 7 24 13 SE 996,3 1,1 0,6
23.01.2019 09:00:00 -1,1 -1,7 -1,5 2,7 15 8 31 17 SE 996,3 2,2 0,0
23.01.2019 08:00:00 -1,2 -1,9 -1,7 2,7 19 10 29 16 SSE 996,3 4,5 0,0
23.01.2019 07:00:00 -1,4 -2,2 -1,9 2,7 14 8 21 12 SE 996,6 7 0,0
23.01.2019 06:00:00 -1,7 -2,3 -1,9 2,7 10 5 19 10 SE 997,4 5 0,0
23.01.2019 05:00:00 -1,8 -2,4 -1,9 2,7 10 6 18 10 SSE 998,2 3,0 0,0
23.01.2019 04:00:00 -1,6 -2,2 -1,8 2,7 9 5 16 9 SSE 998,7 4,5 0,0
23.01.2019 03:00:00 -1,7 -2,3 -1,9 2,7 11 6 18 10 S 999,7 3,6 0,0
23.01.2019 02:00:00 -1,8 -2,5 -2,0 2,7 11 6 18 10 S 1000,3 3,7 0,0
23.01.2019 01:00:00 -1,8 -2,6 -2,0 2,7 11 6 19 10 S 1001,2 3,5 0,0
23.01.2019 00:00:00 -1,8 -2,9 -2,3 2,7 8 4 15 8 S 1002,0 7 0,0
22.01.2019 23:00:00 -2,0 -3,1 -2,5 2,7 11 6 18 10 S 1002,7 8 0,0
22.01.2019 22:00:00 -2,3 -3,1 -2,5 2,7 9 5 15 8 S 1003,5 4,5 0,2
22.01.2019 21:00:00 -2,3 -3,3 -2,5 2,8 8 5 16 9 SSE 1003,9 1,5 0,4
22.01.2019 20:00:00 -2,0 -3,9 -2,2 2,8 8 5 15 8 S 1004,7 2,1 0,0
22.01.2019 19:00:00 -2,0 -4,3 -2,3 2,8 8 5 17 9 S 1005,1 12 0,0
22.01.2019 18:00:00 -2,1 -4,8 -2,6 2,8 8 5 20 11 SSE 1005,8 8 0,0
22.01.2019 17:00:00 -2,0 -5,2 -2,5 2,8 8 4 26 14 S 1006,2 13 0,0
22.01.2019 16:00:00 -1,6 -4,9 -1,1 2,8 17 9 28 15 S 1006,8 14 0,0
22.01.2019 15:00:00 -1,0 -4,2 0,5 2,8 17 9 24 13 SSE 1007,4 13 0,0
22.01.2019 14:00:00 -0,5 -4,2 1,0 2,8 18 10 32 18 S 1008,6 17 0,0
22.01.2019 13:00:00 -1,0 -4,0 0,2 2,9 16 9 30 16 S 1009,9 16 0,0
22.01.2019 12:00:00 -1,7 -4,4 -1,9 2,9 18 10 31 17 S 1011,3 14 0,0
22.01.2019 11:00:00 -2,6 -4,9 -3,1 2,9 18 10 34 18 S 1012,2 12 0,0
22.01.2019 10:00:00 -3,2 -4,8 -3,8 2,9 19 10 33 18 S 1013,2 10 0,0
22.01.2019 09:00:00 -3,5 -5,1 -4,2 2,9 19 11 31 17 SSW 1013,9 10 0,0
22.01.2019 08:00:00 -3,8 -5,3 -4,3 3,0 15 8 28 15 SSW 1014,8 8 0,0
22.01.2019 07:00:00 -3,9 -5,3 -4,3 3,0 17 9 26 14 S 1015,3 6 0,0
22.01.2019 06:00:00 -4,2 -5,0 -4,3 3,0 13 7 22 12 S 1015,7 5 0,0
22.01.2019 05:00:00 -4,1 -4,9 -4,6 3,0 17 9 25 13 SSW 1016,9 3,9 0,0
22.01.2019 04:00:00 -4,6 -5,3 -4,9 3,0 11 6 22 12 SSW 1017,7 2,6 0,0
22.01.2019 03:00:00 -5,0 -5,5 -5,6 3,1 16 9 23 12 SSW 1018,9 0,7 0,0
22.01.2019 02:00:00 -5,8 -6,5 -7,1 3,1 7 4 18 10 S 1019,7 0,5 0,0
22.01.2019 01:00:00 -6,6 -7,5 -9,4 3,1 9 5 15 8 SSW 1020,9 1,8 0,0
22.01.2019 00:00:00 -6,1 -6,9 -11,5 3,1 9 5 11 6 S 1021,1 2,8 0,0
21.01.2019 23:00:00 -5,8 -6,5 -11,8 3,1 10 5 11 6 SSE 1021,5 2,2 0,0
21.01.2019 22:00:00 -5,6 -6,4 -9,3 3,1 9 5 16 8 SSE 1022,1 2,7 0,0
21.01.2019 21:00:00 -5,5 -6,5 -9,5 3,1 11 6 13 7 SE 1022,2 2,5 0,0
21.01.2019 20:00:00 -4,6 -5,6 -9,6 3,2 8 5 11 6 SSE 1022,4 3,1 0,0
21.01.2019 19:00:00 -4,3 -5,7 -10,2 3,2 8 4 10 5 SE 1022,3 4,2 0,0
21.01.2019 18:00:00 -3,3 -5,8 -9,1 3,2 6 3 8 4 ENE 1022,2 8 0,0
21.01.2019 17:00:00 -1,9 -5,1 -3,6 3,2 9 5 13 7 N 1022,0 9 0,0
21.01.2019 16:00:00 -0,4 -4,5 1,8 3,2 5 3 11 6 NNW 1021,5 9 0,0
21.01.2019 15:00:00 -0,2 -4,3 4,1 3,3 6 4 17 9 N 1021,9 7 0,0
21.01.2019 14:00:00 -1,0 -4,2 1,6 3,3 11 6 18 10 NNW 1022,5 9 0,0
21.01.2019 13:00:00 -2,3 -4,3 0,8 3,3 9 5 16 8 NNW 1023,1 7 0,0
21.01.2019 12:00:00 -3,4 -5,1 -0,8 3,4 6 3 14 7 NNW 1023,4 4,9 0,0
21.01.2019 11:00:00 -4,0 -5,5 -4,6 3,4 6 4 11 6 N 1023,7 5 0,0
21.01.2019 10:00:00 -5,3 -6,4 -8,7 3,4 5 3 10 6 N 1023,6 4,1 0,0
21.01.2019 09:00:00 -6,6 -7,5 -10,1 3,4 7 4 12 7 N 1023,6 3,8 0,0
21.01.2019 08:00:00 -6,3 -7,2 -8,2 3,4 5 3 12 7 N 1023,0 3,6 0,0
21.01.2019 07:00:00 -6,6 -7,4 -12,2 3,4 2 1 9 5 NW 1022,7 3,1 0,0
21.01.2019 06:00:00 -6,6 -7,4 -12,2 3,4 2 1 10 5 NNW 1022,2 2,8 0,0
21.01.2019 05:00:00 -6,5 -7,3 -11,3 3,4 7 4 10 5 N 1022,1 2,9 0,0
21.01.2019 04:00:00 -6,1 -6,9 -10,9 3,4 4 2 10 5 NNW 1021,7 2,4 0,0
21.01.2019 03:00:00 -5,3 -6,0 -8,4 3,4 9 5 12 6 N 1021,8 2,4 0,0
21.01.2019 02:00:00 -4,3 -5,0 -6,5 3,4 8 4 11 6 N 1021,3 2,6 0,0
21.01.2019 01:00:00 -3,4 -4,4 -5,1 3,4 7 4 12 7 N 1020,9 3,0 0,0
21.01.2019 00:00:00 -1,8 -3,4 -2,5 3,4 9 5 15 8 NNE 1020,3 6 0,0
20.01.2019 23:00:00 -1,2 -2,9 -1,6 3,4 8 5 16 8 NNE 1019,9 6 0,0
20.01.2019 22:00:00 -0,9 -2,6 -1,3 3,4 8 4 13 7 NNE 1019,3 6 0,0
20.01.2019 21:00:00 -0,9 -2,6 -1,1 3,4 9 5 14 7 NE 1018,8 6 0,0
20.01.2019 20:00:00 -0,9 -2,6 -1,0 3,4 8 4 16 9 ENE 1018,4 6 0,0
20.01.2019 19:00:00 -0,7 -2,1 -0,9 3,4 8 4 16 9 NE 1017,8 4,8 0,0
20.01.2019 18:00:00 -0,6 -1,9 -0,8 3,4 10 5 17 9 ENE 1017,1 5 0,0
20.01.2019 17:00:00 -0,5 -2,1 -0,6 3,4 6 3 10 6 E 1016,5 4,8 0,0
20.01.2019 16:00:00 0,0 -1,4 0,5 3,4 6 3 11 6 E 1015,8 4,4 0,0
20.01.2019 15:00:00 0,1 -1,2 1,0 3,4 5 3 12 7 ENE 1015,4 3,8 0,0
20.01.2019 14:00:00 0,2 -1,2 1,6 3,4 5 3 9 5 E 1015,3 4,1 0,0
20.01.2019 13:00:00 0,1 -1,3 1,3 3,5 5 3 11 6 ESE 1015,4 3,7 0,0
20.01.2019 12:00:00 -0,2 -1,5 -0,2 3,5 6 3 10 5 ENE 1015,3 4,1 0,0
20.01.2019 11:00:00 -1,3 -2,1 -1,2 3,5 8 4 15 8 ENE 1015,2 2,9 0,0
20.01.2019 10:00:00 -1,7 -2,4 -1,7 3,5 10 5 20 11 E 1014,7 2,4 0,0
20.01.2019 09:00:00 -1,8 -2,5 -1,9 3,5 12 6 22 12 E 1014,1 2,4 0,0
20.01.2019 08:00:00 -1,7 -2,4 -1,8 3,5 10 5 16 9 ESE 1013,4 2,1 0,0
20.01.2019 07:00:00 -1,7 -2,4 -1,8 3,5 9 5 14 7 E 1012,9 2,7 0,2
20.01.2019 06:00:00 -1,6 -2,3 -1,7 3,6 6 4 12 6 E 1012,9 1,4 0,2
20.01.2019 05:00:00 -1,6 -2,3 -1,8 3,6 7 4 12 6 E 1013,0 2,0 0,0
20.01.2019 04:00:00 -1,6 -2,3 -1,8 3,6 6 3 13 7 E 1013,0 2,5 0,2
20.01.2019 03:00:00 -1,6 -2,4 -1,8 3,6 8 4 16 9 E 1013,2 1,8 0,0
20.01.2019 02:00:00 -1,6 -2,6 -1,7 3,6 8 4 14 8 E 1013,1 1,7 0,0
20.01.2019 01:00:00 -1,4 -2,7 -1,6 3,7 10 6 16 8 E 1013,3 4,7 0,0
20.01.2019 00:00:00 -0,7 -3,4 -1,2 3,7 6 3 11 6 SE 1013,4 9 0,0
19.01.2019 23:00:00 -0,8 -3,7 -1,3 3,7 9 5 15 8 ESE 1013,2 13 0,0
19.01.2019 22:00:00 -0,7 -3,9 -1,3 3,8 9 5 16 8 ESE 1013,1 21 0,0
19.01.2019 21:00:00 -0,7 -3,7 -2,7 3,8 8 5 16 8 E 1013,2 19 0,0
19.01.2019 20:00:00 -1,1 -3,5 -5,1 3,8 9 5 15 8 ESE 1013,2 19 0,0
19.01.2019 19:00:00 -1,0 -3,5 -5,2 3,9 9 5 16 8 E 1013,3 20 0,0
19.01.2019 18:00:00 -1,1 -3,1 -4,3 3,9 9 5 16 8 E 1013,6 16 0,0
19.01.2019 17:00:00 -0,2 -3,1 -2,4 3,9 7 4 20 11 ESE 1013,6 19 0,0
19.01.2019 16:00:00 1,2 -2,6 2,1 4,0 12 6 21 11 SE 1013,6 17 0,0
19.01.2019 15:00:00 1,0 -2,6 2,1 4,0 13 7 20 11 ESE 1014,1 15 0,0
19.01.2019 14:00:00 0,1 -3,3 2,1 4,1 14 7 24 13 SSE 1014,9 14 0,0
19.01.2019 13:00:00 0,3 -3,6 0,6 4,1 16 9 26 14 SSE 1015,5 10 0,0
19.01.2019 12:00:00 -1,1 -4,3 -0,4 4,2 9 5 15 8 SE 1016,5 9 0,0
19.01.2019 11:00:00 -1,4 -3,0 -4,4 4,2 5 3 9 5 E 1016,9 8 0,0
19.01.2019 10:00:00 -3,5 -4,8 -8,8 4,3 4 2 11 6 SE 1017,3 7 0,0
19.01.2019 09:00:00 -5,5 -6,2 -9,8 4,3 9 5 13 7 ESE 1017,6 4,3 0,0
19.01.2019 08:00:00 -5,3 -6,0 -10,7 4,4 8 5 13 7 ESE 1017,5 2,9 0,0
19.01.2019 07:00:00 -4,8 -5,5 -10,7 4,5 10 5 14 8 ESE 1017,3 3,3 0,0
19.01.2019 06:00:00 -4,7 -5,5 -10,3 4,5 8 4 12 7 ESE 1017,4 3,6 0,0
19.01.2019 05:00:00 -4,3 -5,0 -11,1 4,5 5 3 9 5 ESE 1017,8 3,8 0,0
19.01.2019 04:00:00 -4,4 -5,2 -11,3 4,6 8 5 12 6 ESE 1018,3 6 0,0
19.01.2019 03:00:00 -4,2 -5,0 -10,9 4,6 5 3 7 4 E 1018,7 7 0,0
19.01.2019 02:00:00 -3,8 -4,8 -9,8 4,7 2 1 9 5 ESE 1018,9 6 0,0
19.01.2019 01:00:00 -3,6 -4,6 -10,4 4,7 5 3 11 6 ESE 1019,3 8 0,0
19.01.2019 00:00:00 -3,2 -4,2 -10,4 4,7 4 2 8 5 SE 1019,6 12 0,0
18.01.2019 23:00:00 -3,7 -4,7 -10,4 4,8 2 1 9 5 E 1019,7 15 0,0
18.01.2019 22:00:00 -3,3 -4,4 -10,0 4,7 7 4 9 5 ENE 1019,8 19 0,0
18.01.2019 21:00:00 -2,9 -4,0 -8,8 4,7 3 1 6 4 NE 1019,8 16 0,0
18.01.2019 20:00:00 -2,7 -4,0 -8,6 4,8 2 1 6 3 ENE 1020,0 17 0,0
18.01.2019 19:00:00 -2,2 -4,1 -7,6 4,8 5 3 6 3 ENE 1020,2 20 0,0
18.01.2019 18:00:00 -1,9 -4,1 -6,6 4,8 3 1 4 2 NE 1020,4 25 0,0
18.01.2019 17:00:00 -0,5 -3,9 -2,1 4,8 3 1 16 8 E 1020,4 27 0,0
18.01.2019 16:00:00 0,6 -3,9 0,5 4,8 9 5 16 9 E 1020,5 26 0,0
18.01.2019 15:00:00 0,7 -3,4 0,9 4,8 6 3 14 8 ESE 1020,7 28 0,0
18.01.2019 14:00:00 0,8 -3,0 1,3 4,8 8 5 13 7 E 1021,0 19 0,0
18.01.2019 13:00:00 0,9 -3,0 1,3 4,9 4 2 13 7 E 1021,3 19 0,0
18.01.2019 12:00:00 0,3 -2,3 0,9 4,9 7 4 14 8 ESE 1021,7 19 0,0

tt = Température de l'air
td = dewpoint
tt 5cm = Température de l'air 5cm
tt -20cm = Température de l'air -20cm
ff = Vitesse du vent
fx = gusts
dd = Direction du vent
ppp = reduced air pressure
vv = visibility
rr = Quantités de précipitations

stations d'obs. à proximité